Wind_Speed
35 36 35 38 35 35 37 37 26 35 38 24 17 12 13 16 16 18 17 16 16 20 26 27 25 23 21 20 19 19 20 20 21 22 24 18 19 15 6 10 15 26 23 28
43 33 18 31 34 31 30 32 40 38 34 15 15 14 17 18 19 17 16 16 15 14 16 24 26 25 24 22 21 20 20 18 18 20 20 19 26 10 17 12 8 7 22 21
18 17 34 25 7 9 11 19 21 27 22 11 7 13 18 17 17 18 18 17 15 13 13 14 18 22 24 25 24 22 21 19 16 17 18 18 17 20 23 10 19 14 2 19
23 23 3 9 27 26 23 15 21 22 7 4 13 21 24 22 22 21 21 20 17 15 12 12 13 15 18 20 22 21 21 20 18 17 16 15 15 14 15 17 8 2 3 10
9 8 25 25 6 5 10 21 8 4 5 19 29 32 27 29 29 27 24 22 20 18 16 13 11 12 13 15 17 18 18 17 16 17 16 13 12 12 12 12 14 14 12 9
12 7 6 9 19 19 17 18 2 6 19 32 36 39 38 32 35 35 27 24 21 21 18 16 15 12 12 12 12 14 15 15 14 12 12 13 11 9 10 10 9 9 9 9
32 15 18 25 25 23 8 1 10 29 37 37 42 42 39 32 35 37 36 27 26 22 20 19 18 16 14 13 13 13 13 13 13 13 12 11 10 9 9 10 8 7 8 6
19 14 14 10 9 10 10 26 46 45 45 48 43 40 35 33 30 30 32 31 27 26 19 21 20 17 16 14 17 13 14 14 14 14 14 12 11 9 7 7 7 7 6 6
39 37 32 37 45 49 51 48 56 50 42 41 42 39 35 35 34 31 25 26 23 22 22 22 22 21 18 16 18 15 14 15 15 15 15 15 14 13 12 11 10 9 9 9
47 49 50 52 51 49 50 44 42 39 45 46 46 42 40 39 35 33 30 27 29 27 27 26 24 24 24 25 21 18 17 17 17 17 17 18 17 16 15 15 14 13 13 13
58 54 56 54 48 49 51 48 46 46 45 42 41 42 41 40 43 41 40 38 36 37 35 31 30 30 27 27 29 23 21 20 18 18 18 19 19 20 20 19 18 17 17 17
63 53 51 53 48 47 48 47 44 41 42 40 41 43 48 43 42 40 40 40 38 37 38 33 33 32 29 29 29 29 26 24 21 20 19 19 19 21 21 21 21 21 20 19
46 44 51 53 49 44 46 46 43 41 41 44 41 41 44 45 42 42 41 41 39 37 36 34 34 34 34 35 34 32 28 26 26 24 21 20 20 20 21 21 21 20 18 18
50 49 54 49 51 47 43 42 39 43 44 45 42 39 42 46 45 45 43 43 43 40 38 39 40 36 33 36 38 35 31 29 28 25 24 23 21 21 21 21 21 21 20 19
41 43 47 50 50 48 42 38 38 40 38 40 36 37 37 39 39 40 43 46 46 48 37 37 42 37 31 34 37 36 33 30 28 26 27 25 24 22 21 22 22 22 21 22
42 41 44 44 47 45 42 36 36 37 38 38 36 36 36 37 40 38 38 41 44 41 41 35 38 36 36 36 35 34 32 30 29 28 27 26 23 22 22 22 23 23 22 22
39 35 31 33 36 37 38 34 33 36 38 40 41 41 41 40 41 37 36 39 37 38 36 34 29 33 36 37 35 33 32 31 29 28 27 26 24 23 23 23 24 25 24 23
29 26 25 30 34 31 23 17 23 27 30 33 34 32 33 35 35 33 31 28 27 25 26 19 20 28 32 34 33 31 32 31 29 27 27 27 26 25 25 24 24 24 25 25
18 23 29 32 35 37 35 26 27 23 29 30 29 29 28 25 22 23 22 28 23 17 19 17 20 22 27 31 30 30 31 30 29 28 29 29 28 27 26 25 25 25 24 24
13 22 26 32 33 20 24 28 33 29 30 31 24 29 20 16 16 12 12 12 11 13 13 11 12 17 21 22 23 27 29 28 28 28 29 28 28 27 26 25 24 25 24 24
27 28 30 29 25 20 19 26 32 36 32 26 16 15 13 10 9 10 4 4 3 3 4 4 3 7 12 16 19 22 25 26 27 28 27 27 26 25 24 23 22 22 22 22
36 33 31 27 22 18 20 22 25 31 30 16 12 3 2 3 6 8 9 9 7 5 5 3 4 6 7 12 15 19 22 24 25 25 25 24 23 22 21 20 20 20 20 20
41 40 36 32 30 22 17 22 26 24 27 20 15 13 10 11 12 13 14 15 16 17 19 20 20 19 18 16 15 15 18 20 21 22 22 22 20 19 19 18 17 17 17 17
40 38 36 32 34 30 20 18 23 24 25 19 18 15 16 15 14 16 17 18 21 20 15 14 14 10 10 13 15 15 16 17 17 18 18 18 17 17 16 16 17 16 14 13
41 41 36 34 32 36 27 22 25 26 25 21 20 22 25 23 23 24 24 21 16 12 11 10 11 11 11 11 10 11 12 13 14 14 15 14 14 14 15 14 12 9 12 16
51 45 41 35 33 31 30 33 31 28 27 25 22 24 25 23 24 22 20 16 12 13 10 7 7 9 9 8 7 8 8 9 10 10 10 10 11 11 10 8 8 11 13 15
50 44 38 35 32 32 28 34 36 30 26 25 23 21 25 23 22 19 16 10 10 9 9 6 3 3 4 5 6 6 7 7 7 8 8 8 7 6 7 8 10 12 13 15
Wind_Direction
298 301 298 288 280 272 259 260 253 280 290 321 322 311 313 311 312 318 312 305 296 274 265 269 276 280 285 295 304 312 321 332 341 344 2 357 42 20 335 293 290 244 243 235
304 314 308 296 287 275 269 266 266 280 292 327 327 324 330 330 320 318 315 312 306 302 283 266 269 276 283 289 296 303 310 319 329 336 350 358 359 6 34 15 306 259 233 241
294 306 308 299 8 257 284 289 291 276 317 318 341 349 347 335 337 335 322 318 318 312 302 290 274 271 278 283 288 292 297 303 310 320 332 345 2 2 11 38 64 66 268 231
282 308 297 296 306 288 291 299 302 297 316 341 332 328 336 330 322 324 330 324 314 308 306 300 296 286 277 277 280 285 288 291 297 303 311 326 337 352 1 7 6 321 101 107
265 264 284 302 296 314 290 319 321 42 358 340 329 317 323 318 312 315 315 317 313 310 300 294 291 288 285 282 282 281 280 282 285 290 298 308 318 324 332 343 354 23 17 26
252 254 252 289 297 290 290 302 221 310 320 317 316 313 311 310 308 310 309 305 306 303 300 288 279 277 279 282 282 279 280 279 279 280 286 293 297 302 311 320 331 339 346 4
243 252 270 296 284 280 260 290 316 309 299 305 306 303 305 297 297 300 301 300 294 292 288 289 280 276 274 275 276 276 274 271 270 272 273 274 280 287 291 296 306 314 315 320
234 229 277 286 295 277 283 284 303 304 306 303 295 288 298 295 293 297 292 289 292 285 276 274 281 279 274 275 270 277 276 274 266 261 263 265 267 269 268 265 273 283 288 294
258 259 270 282 289 293 294 294 301 301 295 301 295 290 286 293 289 290 293 286 281 287 277 267 272 279 279 270 267 266 269 271 268 263 258 257 255 255 254 250 246 249 258 265
265 269 282 288 286 295 301 299 299 296 294 295 292 288 290 283 284 281 282 280 281 280 276 271 271 271 273 276 274 269 266 266 265 265 259 254 252 252 254 254 253 252 255 257
284 292 299 297 299 299 298 296 295 293 294 291 290 290 295 289 286 275 272 273 274 275 278 274 267 267 265 267 272 272 264 258 259 262 265 262 256 253 251 252 254 255 256 256
289 300 292 298 303 303 297 296 296 294 285 279 283 285 287 280 284 279 266 270 269 271 273 273 267 264 260 261 266 267 270 268 260 256 257 261 263 262 260 258 258 257 257 255
300 297 302 300 305 308 301 296 295 289 285 282 278 279 281 278 278 283 273 265 270 268 270 270 264 260 260 260 260 263 264 265 262 258 258 259 261 263 264 263 261 262 264 265
292 301 304 303 298 300 298 297 290 284 283 283 281 280 276 276 279 281 281 271 258 267 267 266 264 261 260 258 256 256 257 260 260 256 255 254 257 260 261 263 265 266 263 261
298 302 297 294 292 297 303 298 295 292 283 275 276 281 284 283 279 279 282 275 271 261 264 266 261 258 258 256 255 254 252 255 259 254 251 252 253 255 257 258 260 262 263 263
291 286 288 293 298 302 301 297 289 288 286 285 284 280 278 279 282 282 289 283 279 273 258 259 260 257 252 252 254 250 246 248 252 253 252 253 256 259 261 261 260 259 259 261
287 288 297 295 300 306 303 300 294 292 290 285 286 282 280 274 274 282 287 283 283 286 275 250 255 252 246 249 251 248 241 242 248 251 252 254 258 262 263 264 265 267 264 264
277 281 295 304 304 298 299 307 312 314 311 293 291 287 278 279 276 278 285 278 284 291 292 280 254 250 242 242 245 243 241 243 247 250 250 253 257 261 264 266 266 268 271 272
283 311 311 307 299 295 311 322 324 310 332 322 308 295 284 282 279 282 272 282 272 286 284 278 263 247 244 242 239 238 237 241 245 248 249 251 256 261 264 264 266 267 268 270
293 294 298 304 319 332 324 325 336 334 327 319 296 292 276 273 272 267 276 287 285 278 283 290 270 252 240 236 241 239 238 241 246 248 249 251 254 258 262 265 267 267 268 271
311 297 290 301 306 317 311 328 334 338 336 319 289 284 269 263 251 261 275 288 290 314 334 339 299 265 248 243 242 244 243 246 249 250 251 251 254 259 262 262 263 266 268 271
313 307 307 293 287 306 318 316 329 338 334 327 279 254 315 262 219 209 213 225 230 237 232 242 319 311 273 257 253 250 250 249 248 248 248 251 254 257 258 260 261 262 263 265
302 303 306 306 302 303 300 315 315 317 331 332 336 314 277 259 261 269 273 281 292 298 301 289 273 264 255 264 272 264 253 247 244 243 245 248 252 255 256 257 259 261 265 271
301 302 301 300 297 291 291 303 307 310 306 321 313 292 297 304 299 299 303 310 313 309 314 318 275 271 268 255 250 248 247 245 244 245 248 251 251 252 255 256 256 258 267 277
296 295 293 291 291 289 283 301 300 306 305 306 302 318 289 282 284 294 307 308 315 316 301 296 287 283 270 255 242 233 230 234 238 242 249 255 257 257 257 258 262 264 263 268
297 293 287 278 277 277 280 285 290 291 302 306 295 301 310 303 298 307 311 313 317 309 305 299 288 278 271 254 235 230 233 237 245 252 255 255 255 255 260 265 267 266 270 279
289 289 281 268 259 259 257 271 276 284 288 299 299 290 301 302 297 302 302 306 304 305 311 305 281 262 247 229 222 230 238 243 241 239 239 239 237 231 241 253 267 281 285 289
Height
3067 3064 3060 3051 3049 3050 3047 3045 3042 3024 3022 3019 3021 3019 3017 3014 3011 3009 3005 3003 3000 2998 2998 2998 2999 2997 2996 2995 2993 2991 2988 2984 2980 2975 2971 2967 2961 2956 2953 2951 2948 2948 2951 2953
3057 3056 3050 3041 3038 3037 3036 3035 3030 3025 3017 3020 3018 3016 3013 3011 3009 3006 3002 3000 2997 2994 2992 2992 2992 2992 2991 2991 2989 2987 2985 2982 2979 2975 2972 2967 2964 2959 2954 2950 2946 2942 2944 2948
3052 3052 3047 3035 3028 3028 3027 3026 3025 3021 3019 3016 3015 3014 3012 3009 3005 3003 3001 2997 2994 2991 2988 2987 2986 2985 2985 2985 2984 2983 2981 2979 2977 2974 2972 2969 2964 2962 2958 2953 2949 2946 2943 2945
3054 3050 3045 3028 3025 3024 3023 3022 3019 3015 3016 3015 3014 3011 3011 3008 3004 3001 2997 2995 2991 2988 2985 2982 2981 2980 2979 2978 2977 2977 2976 2975 2974 2972 2970 2968 2966 2963 2960 2957 2954 2951 2948 2946
3056 3047 3034 3023 3021 3020 3020 3019 3016 3014 3015 3014 3011 3007 3007 3004 3001 2997 2994 2991 2989 2985 2983 2979 2976 2975 2974 2973 2972 2971 2970 2969 2969 2968 2967 2966 2964 2962 2961 2959 2956 2954 2950 2948
3051 3047 3034 3024 3021 3019 3017 3014 3014 3013 3012 3009 3006 3001 2999 2998 2994 2991 2989 2986 2983 2981 2979 2977 2974 2971 2970 2968 2967 2966 2965 2965 2964 2963 2963 2963 2962 2960 2958 2957 2956 2955 2954 2952
3042 3037 3020 3020 3017 3016 3018 3017 3012 3011 3008 3004 3000 2997 2992 2990 2988 2984 2981 2979 2977 2975 2974 2972 2969 2967 2966 2964 2963 2962 2960 2959 2959 2959 2959 2958 2958 2958 2957 2956 2955 2954 2954 2953
3033 3031 3019 3014 3013 3015 3012 3008 3005 3003 2999 2995 2989 2985 2982 2981 2977 2974 2972 2971 2969 2967 2966 2966 2965 2963 2961 2960 2958 2958 2957 2955 2954 2954 2954 2954 2954 2953 2953 2953 2953 2952 2952 2952
3021 3010 3014 3010 3008 3008 3005 2999 2997 2994 2991 2985 2978 2976 2974 2970 2970 2967 2963 2962 2961 2959 2959 2957 2957 2958 2957 2954 2951 2951 2951 2951 2949 2949 2949 2950 2950 2950 2950 2950 2950 2949 2949 2949
3009 2999 3002 3004 3002 2999 2996 2989 2985 2983 2979 2975 2969 2966 2963 2959 2958 2958 2956 2954 2953 2951 2950 2951 2950 2949 2950 2948 2946 2946 2945 2945 2945 2945 2943 2943 2944 2944 2945 2946 2946 2945 2945 2945
2986 2993 2987 2985 2987 2985 2979 2975 2970 2967 2965 2961 2957 2953 2952 2948 2946 2946 2945 2944 2943 2941 2940 2941 2941 2939 2940 2940 2939 2940 2939 2938 2938 2938 2939 2939 2937 2937 2938 2938 2939 2939 2940 2941
2977 2984 2981 2967 2973 2971 2963 2960 2957 2953 2948 2947 2944 2940 2939 2936 2934 2932 2932 2931 2930 2930 2929 2930 2930 2930 2931 2930 2930 2932 2932 2932 2932 2931 2931 2932 2933 2933 2933 2933 2934 2935 2935 2935
2971 2967 2966 2959 2956 2955 2948 2944 2942 2938 2935 2930 2931 2929 2925 2921 2923 2920 2919 2918 2919 2918 2918 2919 2918 2919 2920 2921 2920 2922 2924 2925 2924 2924 2924 2925 2925 2926 2927 2927 2927 2927 2928 2929
2965 2959 2948 2950 2938 2940 2936 2932 2927 2924 2922 2919 2916 2917 2913 2909 2909 2908 2906 2904 2903 2904 2905 2906 2907 2908 2910 2909 2910 2912 2915 2916 2916 2917 2918 2918 2918 2919 2920 2920 2921 2922 2923 2923
2951 2949 2941 2933 2929 2926 2926 2921 2915 2913 2911 2908 2905 2901 2901 2897 2896 2895 2892 2889 2888 2889 2891 2893 2893 2898 2899 2898 2899 2902 2905 2907 2908 2909 2910 2911 2911 2912 2913 2914 2915 2916 2917 2917
2937 2935 2932 2927 2922 2917 2914 2911 2905 2901 2899 2897 2895 2892 2890 2888 2885 2883 2881 2878 2876 2874 2875 2878 2880 2886 2887 2887 2889 2891 2895 2897 2898 2900 2902 2904 2905 2905 2906 2907 2908 2908 2909 2910
2927 2926 2926 2920 2914 2909 2904 2900 2896 2890 2886 2884 2882 2882 2879 2876 2874 2873 2871 2867 2864 2862 2860 2860 2867 2871 2874 2875 2879 2882 2885 2887 2889 2891 2894 2896 2898 2898 2898 2899 2900 2901 2901 2902
2922 2918 2916 2912 2907 2900 2896 2892 2887 2881 2875 2870 2868 2867 2865 2863 2862 2861 2860 2858 2855 2854 2852 2850 2852 2858 2862 2865 2869 2873 2877 2879 2882 2883 2886 2888 2889 2890 2890 2891 2892 2892 2893 2894
2913 2912 2910 2906 2900 2893 2891 2885 2879 2873 2866 2860 2857 2856 2854 2852 2851 2851 2851 2849 2847 2848 2847 2846 2847 2849 2854 2858 2862 2865 2868 2871 2873 2875 2877 2879 2881 2882 2883 2884 2884 2885 2886 2886
2908 2906 2903 2899 2896 2888 2885 2880 2873 2866 2858 2853 2851 2849 2846 2847 2847 2845 2844 2844 2843 2844 2844 2843 2843 2845 2848 2852 2856 2859 2862 2864 2866 2868 2870 2872 2873 2874 2876 2877 2878 2879 2880 2880
2900 2898 2895 2891 2888 2884 2878 2875 2870 2862 2854 2848 2845 2843 2842 2842 2841 2840 2841 2841 2841 2842 2842 2841 2841 2843 2846 2848 2851 2853 2855 2857 2859 2861 2863 2865 2867 2868 2869 2870 2871 2872 2873 2874
2894 2890 2887 2884 2880 2877 2875 2871 2867 2861 2854 2848 2845 2842 2841 2840 2838 2837 2836 2836 2836 2836 2837 2837 2839 2841 2842 2844 2845 2846 2848 2850 2852 2854 2857 2859 2860 2861 2862 2863 2864 2866 2867 2868
2885 2882 2880 2878 2875 2871 2868 2866 2863 2860 2854 2848 2845 2843 2840 2839 2838 2837 2836 2836 2835 2834 2833 2833 2834 2835 2837 2839 2840 2842 2843 2844 2846 2848 2850 2852 2854 2855 2856 2857 2858 2859 2861 2862
2875 2873 2871 2870 2869 2866 2862 2861 2858 2855 2852 2847 2845 2841 2839 2837 2836 2835 2834 2833 2831 2829 2827 2827 2829 2831 2831 2832 2834 2835 2837 2839 2841 2844 2846 2847 2848 2849 2850 2851 2852 2853 2854 2856
2863 2861 2859 2858 2858 2857 2856 2854 2852 2849 2846 2843 2840 2838 2835 2833 2833 2831 2830 2828 2826 2827 2826 2826 2827 2827 2827 2829 2830 2831 2833 2835 2837 2839 2841 2842 2843 2844 2845 2846 2848 2849 2851 2851
2847 2847 2845 2845 2845 2845 2846 2846 2844 2843 2839 2836 2834 2833 2832 2829 2827 2826 2825 2824 2824 2825 2825 2824 2824 2824 2825 2826 2828 2830 2831 2832 2833 2835 2837 2838 2839 2840 2841 2842 2843 2845 2845 2844
2829 2829 2828 2828 2831 2832 2834 2835 2834 2834 2832 2830 2828 2827 2826 2824 2823 2823 2823 2822 2823 2823 2823 2822 2821 2822 2823 2825 2826 2827 2829 2829 2830 2832 2833 2834 2835 2836 2837 2839 2840 2840 2839 2838